Location: Unspecified
(35.7250°N, 0.0000°E)
Time: 22:05:28
(UTC+00:00)

Vanguard 1 - Pass Details

Date: 01 July 2019
Orbit: 653 x 3830 km, 34.3° (Epoch: 20 July)

Event Time Altitude Azimuth Distance (km) Brightness Sun altitude
Rises 21:13:36 0° 207° (SSW) 7,100 14.2 -18.7°
Reaches altitude 10° 21:18:36 10° 199° (SSW) 6,402 13.9 -19.4°
Maximum altitude 21:37:53 38° 140° (SE) 4,935 13.0 -21.8°
Drops below altitude 10° 21:56:35 10° 81° (E) 6,305 13.9 -23.9°
Sets 22:01:20 0° 74° (ENE) 6,998 14.3 -24.4°
